Regional Weather Roundup
Issued by NWS

Home | Current Version | Previous Version | Graphics & Text | Print | Product List | Glossary On
Versions: 1 2 3 4 5 6 7 8 9 10 11 12 13 14 15 16 17 18 19 20 21 22 23 24 25 26 27 28 29 30 31 32 33 34 35 36 37 38 39 40 41 42 43 44 45 46 47 48 49 50
000
ASUS43 KOAX 270902
RWRNE

WEATHER ROUNDUP FOR NEBRASKA
NATIONAL WEATHER SERVICE OMAHA NE
400 AM CDT TUE JUN 27 2017

NOTES: SATELLITE DATA IS BEING USED TO AUGMENT CLOUD COVER ABOVE
       12000 FEET.
       "FAIR" INDICATES FEW OR NO CLOUDS BELOW 12,000 FEET WITH NO
       SIGNIFICANT WEATHER AND/OR OBSTRUCTIONS TO VISIBILITY.

  * THESE STATIONS DO NOT REPORT WEATHER SUCH AS RAIN...SNOW OR FOG.

NEZ001>004-019>022-054>056-271000-
NEBRASKA PANHANDLE

CITY           SKY/WX    TMP DP  RH WIND       PRES   REMARKS
SCOTTSBLUFF    CLOUDY    63  54  72 SE13      30.00F
ALLIANCE       CLEAR     58  52  80 S15G25    30.01F
CHADRON        CLEAR     65  52  62 S31G45    29.89F
GORDON         FAIR      59  46  63 S9        30.01F
KIMBALL        CLOUDY    59  56  89 SE18G25   30.06F
SIDNEY         CLEAR     58  54  86 S17G24    30.06F
$$

NEZ057>060-069>072-079>082-271000-
SOUTHWEST NEBRASKA

CITY           SKY/WX    TMP DP  RH WIND       PRES   REMARKS
NORTH PLATTE   CLEAR     60  57  89 SE9       30.07F
IMPERIAL       CLOUDY    60  56  86 SE14      30.06F
LEXINGTON      CLEAR     59  56  92 SE7       30.09F
MCCOOK         CLOUDY    61  60  97 E8        30.07F
OGALLALA       MOCLDY    62  56  82 SE12      30.06F
$$

NEZ005>010-023>029-035>040-094-271000-
NORTH CENTRAL NEBRASKA

CITY           SKY/WX    TMP DP  RH WIND       PRES   REMARKS
VALENTINE      PTCLDY    58  43  57 S9        30.04F
AINSWORTH      CLEAR     55  47  74 S14       30.06F
BROKEN BOW     CLEAR     55  52  89 SE5       30.08F
O`NEILL        CLEAR     51  45  79 SE8       30.10S
ORD            CLOUDY    55  48  77 SE5       30.09F
THEDFORD       CLEAR     56  50  80 SE10      30.07F
$$

NEZ041-046>049-061>064-073>077-083>087-271000-
SOUTH CENTRAL NEBRASKA

CITY           SKY/WX    TMP DP  RH WIND       PRES   REMARKS
GRAND ISLAND   FOG       58  58 100 SE7       30.11F VSB 1/2
AURORA         FOG       58  58 100 S8        30.12F VSB 1/4
HASTINGS       CLOUDY    59  57  93 SE10      30.12F
HEBRON         FOG       56  55  99 CALM      30.12F VSB 1/2
HOLDREGE       CLOUDY    58  57  95 SE10      30.09F FOG
KEARNEY *      CLOUDY    59  55  88 SE15      30.11F
YORK           LGT RAIN  57  57 100 S6        30.12F VSB<1/4
$$

NEZ011>018-030>034-042>045-271000-
NORTHEAST NEBRASKA

CITY           SKY/WX    TMP DP  RH WIND       PRES   REMARKS
NORFOLK        CLEAR     48  42  80 SE6       30.11F
ALBION         CLEAR     49  44  80 CALM      30.11F
BLAIR          CLEAR     56  49  76 SE6       30.12F
FREMONT        CLEAR     55  49  82 CALM      30.12F
TEKAMAH        CLEAR     47  40  76 CALM      30.13S
WAYNE          CLEAR     51  44  76 SE6       30.12S
$$

NEZ050>053-065>068-078-088>093-271000-
SOUTHEAST NEBRASKA

CITY           SKY/WX    TMP DP  RH WIND       PRES   REMARKS
LINCOLN        CLEAR     54  51  90 CALM      30.12F
OMAHA EPPLEY   CLEAR     54  49  83 CALM      30.13F
BEATRICE       CLEAR     56  56 100 CALM      30.12F FOG
FALLS CITY     FOG       55  55 100 SE5       30.12F VSB 1/4
NEBRASKA CITY  CLEAR     58  58 100 CALM      30.13F FOG
PLATTSMOUTH    CLEAR     57  55  94 E3        30.13F
$$

NEZ044-045-051>053-067-271000-
OMAHA AREA

CITY           SKY/WX    TMP DP  RH WIND       PRES   REMARKS
OMAHA EPPLEY   CLEAR     54  49  83 CALM      30.13F
BLAIR          CLEAR     56  49  76 SE6       30.12F
FREMONT        CLEAR     55  49  82 CALM      30.12F
MILLARD        CLEAR     55  53  92 CALM      30.13S
OFFUTT AFB     CLEAR     52  49  92 E3        30.12F
PLATTSMOUTH    CLEAR     57  55  94 E3        30.13F
WAHOO          FAIR      52  47  81 SE3       30.12S
$$




USA.gov is the U.S. government's official web portal to all federal, state and local government web resources and services.